| time (UTC) | temp F | wind direction | speed MPH | gust MPH | rain 1hr in | rain 24hr in | rain mn in | humidity % | barometer mb |
| 20260510035003 | 52 | 225 | 5.0 | 9.0 | 0.00 | 0.00 | 0.00 | 82 | 1006.3 |
| 20260510034003 | 51 | 225 | 4.0 | 8.0 | 0.00 | 0.00 | 0.00 | 82 | 1006.2 |
| 20260510033003 | 51 | 225 | 4.0 | 10.0 | 0.00 | 0.00 | 0.00 | 82 | 1005.9 |
| 20260510032003 | 51 | 224 | 4.0 | 10.0 | 0.00 | 0.00 | 0.00 | 82 | 1005.6 |
| 20260510031003 | 51 | 222 | 4.0 | 9.0 | 0.00 | 0.00 | 0.00 | 82 | 1006.0 |
| 20260510030024 | 51 | 227 | 4.0 | 11.0 | 0.00 | 0.00 | 0.00 | 83 | 1006.0 |
| 20260510025003 | 51 | 222 | 3.0 | 10.0 | 0.00 | 0.00 | 0.00 | 84 | 1005.9 |
| 20260510024003 | 50 | 233 | 3.0 | 7.0 | 0.00 | 0.00 | 0.00 | 87 | 1006.1 |
| 20260510023024 | 48 | 210 | 2.0 | 10.0 | 0.00 | 0.00 | 0.00 | 91 | 1006.1 |
| 20260510022003 | 45 | 0 | 0.0 | 0.0 | 0.00 | 0.00 | 0.00 | 91 | 1006.2 |
| 20260510021003 | 44 | 0 | 0.0 | 0.0 | 0.00 | 0.00 | 0.00 | 90 | 1006.3 |
| 20260510020003 | 44 | 252 | 1.0 | 2.0 | 0.00 | 0.00 | 0.00 | 90 | 1006.3 |
| 20260510015003 | 44 | 252 | 1.0 | 3.0 | 0.00 | 0.00 | 0.00 | 91 | 1006.5 |
| 20260510014003 | 44 | 252 | 1.0 | 3.0 | 0.00 | 0.00 | 0.00 | 90 | 1006.5 |
| 20260510013003 | 44 | 250 | 0.0 | 3.0 | 0.00 | 0.00 | 0.00 | 89 | 1006.3 |
| 20260510012024 | 44 | 0 | 0.0 | 0.0 | 0.00 | 0.00 | 0.00 | 89 | 1006.4 |
| 20260510011003 | 44 | 250 | 1.0 | 3.0 | 0.00 | 0.00 | 0.00 | 89 | 1006.2 |
| 20260510010003 | 44 | 250 | 1.0 | 3.0 | 0.00 | 0.00 | 0.00 | 88 | 1005.9 |
| 20260510005003 | 45 | 250 | 1.0 | 3.0 | 0.00 | 0.00 | 0.00 | 87 | 1005.8 |
| 20260510004003 | 46 | 242 | 0.0 | 2.0 | 0.00 | 0.00 | 0.00 | 86 | 1005.9 |
| 20260510003003 | 47 | 0 | 0.0 | 0.0 | 0.00 | 0.00 | 0.00 | 85 | 1006.0 |
| 20260510002003 | 48 | 242 | 0.0 | 1.0 | 0.00 | 0.00 | 0.00 | 83 | 1005.9 |
| 20260510001003 | 49 | 241 | 0.0 | 2.0 | 0.00 | 0.00 | 0.00 | 83 | 1005.9 |
| 20260510000003 | 50 | 241 | 0.0 | 2.0 | 0.00 | 0.00 | 0.00 | 82 | 1006.0 |
| 20260509235003 | 50 | 242 | 1.0 | 5.0 | 0.00 | 0.00 | 0.00 | 83 | 1006.3 |
| 20260509234003 | 50 | 235 | 1.0 | 3.0 | 0.00 | 0.00 | 0.00 | 82 | 1006.5 |
| 20260509233003 | 50 | 238 | 1.0 | 7.0 | 0.00 | 0.00 | 0.00 | 82 | 1006.3 |
| 20260509232003 | 50 | 239 | 1.0 | 5.0 | 0.00 | 0.00 | 0.00 | 82 | 1006.1 |
| 20260509231003 | 50 | 237 | 1.0 | 4.0 | 0.00 | 0.00 | 0.00 | 81 | 1006.2 |
| 20260509230003 | 50 | 233 | 1.0 | 8.0 | 0.00 | 0.00 | 0.00 | 81 | 1006.1 |
| 20260509225003 | 50 | 230 | 0.0 | 2.0 | 0.00 | 0.00 | 0.00 | 82 | 1006.1 |
| 20260509224003 | 50 | 240 | 2.0 | 7.0 | 0.00 | 0.00 | 0.00 | 81 | 1006.2 |
| 20260509223003 | 50 | 231 | 1.0 | 7.0 | 0.00 | 0.00 | 0.00 | 82 | 1006.3 |
| 20260509222003 | 50 | 235 | 2.0 | 8.0 | 0.00 | 0.00 | 0.00 | 81 | 1006.3 |
| 20260509221003 | 49 | 202 | 1.0 | 4.0 | 0.00 | 0.00 | 0.00 | 82 | 1006.1 |
| 20260509220003 | 49 | 233 | 1.0 | 5.0 | 0.00 | 0.00 | 0.00 | 82 | 1006.2 |
| 20260509215003 | 49 | 231 | 1.0 | 4.0 | 0.00 | 0.00 | 0.00 | 82 | 1006.3 |
| 20260509214003 | 49 | 133 | 0.0 | 4.0 | 0.00 | 0.00 | 0.00 | 83 | 1006.4 |
| 20260509213003 | 49 | 57 | 0.0 | 2.0 | 0.00 | 0.00 | 0.00 | 83 | 1006.6 |
| 20260509212003 | 49 | 247 | 2.0 | 5.0 | 0.00 | 0.00 | 0.00 | 83 | 1006.7 |
| 20260509211003 | 49 | 275 | 1.0 | 4.0 | 0.00 | 0.00 | 0.00 | 82 | 1006.6 |
| 20260509210003 | 50 | 236 | 1.0 | 4.0 | 0.00 | 0.00 | 0.00 | 82 | 1006.5 |
| 20260509205024 | 50 | 206 | 2.0 | 6.0 | 0.00 | 0.00 | 0.00 | 80 | 1006.6 |
| 20260509204003 | 50 | 234 | 1.0 | 3.0 | 0.00 | 0.00 | 0.00 | 78 | 1006.6 |
| 20260509203024 | 50 | 231 | 1.0 | 3.0 | 0.00 | 0.00 | 0.00 | 78 | 1006.8 |
| 20260509202024 | 50 | 237 | 1.0 | 5.0 | 0.00 | 0.00 | 0.00 | 78 | 1006.9 |
| 20260509201003 | 50 | 219 | 1.0 | 5.0 | 0.00 | 0.00 | 0.00 | 77 | 1006.9 |
| 20260509200003 | 51 | 227 | 2.0 | 8.0 | 0.00 | 0.00 | 0.00 | 76 | 1006.9 |
| 20260509195003 | 51 | 235 | 2.0 | 8.0 | 0.00 | 0.00 | 0.00 | 76 | 1007.0 |
| 20260509194003 | 51 | 229 | 4.0 | 10.0 | 0.00 | 0.00 | 0.00 | 75 | 1007.1 |
| 20260509193003 | 51 | 235 | 4.0 | 9.0 | 0.00 | 0.00 | 0.00 | 74 | 1007.0 |
| 20260509192003 | 52 | 213 | 3.0 | 8.0 | 0.00 | 0.00 | 0.00 | 74 | 1007.2 |
| 20260509191003 | 52 | 223 | 5.0 | 12.0 | 0.00 | 0.00 | 0.00 | 73 | 1007.1 |
| 20260509190003 | 52 | 232 | 4.0 | 10.0 | 0.00 | 0.00 | 0.00 | 72 | 1007.1 |
| 20260509185003 | 52 | 230 | 5.0 | 11.0 | 0.00 | 0.00 | 0.00 | 72 | 1007.2 |
| 20260509184024 | 52 | 234 | 6.0 | 14.0 | 0.00 | 0.00 | 0.00 | 71 | 1007.3 |
| 20260509183003 | 52 | 232 | 6.0 | 18.0 | 0.00 | 0.00 | 0.00 | 70 | 1007.2 |
| 20260509182003 | 52 | 230 | 5.0 | 13.0 | 0.00 | 0.00 | 0.00 | 70 | 1007.3 |
| 20260509181003 | 52 | 219 | 4.0 | 9.0 | 0.00 | 0.00 | 0.00 | 68 | 1007.3 |
| 20260509180003 | 53 | 214 | 3.0 | 10.0 | 0.00 | 0.00 | 0.00 | 67 | 1007.4 |
| 20260509175024 | 53 | 223 | 3.0 | 11.0 | 0.00 | 0.00 | 0.00 | 66 | 1007.6 |
| 20260509174003 | 52 | 232 | 5.0 | 15.0 | 0.00 | 0.00 | 0.00 | 68 | 1007.7 |
| 20260509173003 | 52 | 234 | 4.0 | 11.0 | 0.00 | 0.00 | 0.00 | 67 | 1007.7 |
| 20260509172024 | 52 | 212 | 4.0 | 9.0 | 0.00 | 0.00 | 0.00 | 68 | 1007.8 |
| 20260509171003 | 51 | 226 | 4.0 | 11.0 | 0.00 | 0.00 | 0.00 | 68 | 1007.9 |
| 20260509170003 | 52 | 229 | 6.0 | 13.0 | 0.00 | 0.00 | 0.00 | 68 | 1008.0 |
| 20260509165003 | 53 | 214 | 4.0 | 10.0 | 0.00 | 0.00 | 0.00 | 66 | 1008.0 |
| 20260509164003 | 53 | 217 | 4.0 | 11.0 | 0.00 | 0.00 | 0.00 | 65 | 1008.0 |
| 20260509163003 | 52 | 220 | 4.0 | 12.0 | 0.00 | 0.00 | 0.00 | 64 | 1008.2 |
| 20260509162003 | 52 | 221 | 3.0 | 7.0 | 0.00 | 0.00 | 0.00 | 66 | 1008.2 |
| 20260509161003 | 52 | 239 | 3.0 | 11.0 | 0.00 | 0.00 | 0.00 | 63 | 1008.4 |
| 20260509160003 | 52 | 233 | 3.0 | 8.0 | 0.00 | 0.00 | 0.00 | 66 | 1008.5 |
| 20260509155024 | 52 | 232 | 4.0 | 10.0 | 0.00 | 0.00 | 0.00 | 63 | 1008.7 |
| 20260509154003 | 51 | 232 | 6.0 | 14.0 | 0.00 | 0.00 | 0.00 | 64 | 1008.7 |
| 20260509153003 | 51 | 234 | 5.0 | 13.0 | 0.00 | 0.00 | 0.00 | 62 | 1008.9 |
| 20260509152003 | 51 | 234 | 3.0 | 9.0 | 0.00 | 0.00 | 0.00 | 57 | 1008.9 |
| 20260509151003 | 51 | 234 | 3.0 | 7.0 | 0.00 | 0.00 | 0.00 | 57 | 1009.0 |
| 20260509150024 | 51 | 242 | 3.0 | 8.0 | 0.00 | 0.00 | 0.00 | 58 | 1009.1 |
| 20260509145003 | 51 | 232 | 4.0 | 9.0 | 0.00 | 0.00 | 0.00 | 57 | 1009.1 |
| 20260509144003 | 50 | 228 | 5.0 | 12.0 | 0.00 | 0.00 | 0.00 | 54 | 1009.2 |
| 20260509143003 | 51 | 237 | 6.0 | 12.0 | 0.00 | 0.00 | 0.00 | 52 | 1009.1 |
| 20260509142003 | 51 | 232 | 5.0 | 12.0 | 0.00 | 0.00 | 0.00 | 50 | 1009.1 |
| 20260509141003 | 52 | 230 | 4.0 | 14.0 | 0.00 | 0.00 | 0.00 | 51 | 1009.0 |
| 20260509140003 | 51 | 234 | 5.0 | 15.0 | 0.00 | 0.00 | 0.00 | 49 | 1009.1 |
| 20260509135003 | 51 | 243 | 5.0 | 12.0 | 0.00 | 0.00 | 0.00 | 49 | 1009.2 |
| 20260509134003 | 51 | 240 | 4.0 | 11.0 | 0.00 | 0.00 | 0.00 | 49 | 1009.3 |
| 20260509133003 | 50 | 239 | 4.0 | 15.0 | 0.00 | 0.00 | 0.00 | 50 | 1009.4 |
| 20260509132003 | 49 | 231 | 5.0 | 13.0 | 0.00 | 0.00 | 0.00 | 51 | 1009.4 |
| 20260509131003 | 49 | 230 | 3.0 | 10.0 | 0.00 | 0.00 | 0.00 | 52 | 1009.4 |
| 20260509130003 | 48 | 233 | 4.0 | 11.0 | 0.00 | 0.00 | 0.00 | 53 | 1009.7 |
| 20260509125003 | 47 | 227 | 3.0 | 8.0 | 0.00 | 0.00 | 0.00 | 59 | 1009.7 |
| 20260509124003 | 43 | 226 | 1.0 | 5.0 | 0.00 | 0.00 | 0.00 | 66 | 1009.6 |
| 20260509123003 | 41 | 195 | 0.0 | 2.0 | 0.00 | 0.00 | 0.00 | 79 | 1009.9 |
| 20260509122003 | 39 | 0 | 0.0 | 0.0 | 0.00 | 0.00 | 0.00 | 84 | 1009.9 |
| 20260509121003 | 38 | 0 | 0.0 | 0.0 | 0.00 | 0.00 | 0.00 | 88 | 1009.9 |
| 20260509120003 | 36 | 198 | 1.0 | 3.0 | 0.00 | 0.00 | 0.00 | 90 | 1010.0 |
| 20260509115003 | 33 | 200 | 0.0 | 1.0 | 0.00 | 0.00 | 0.00 | 91 | 1010.2 |
| 20260509114003 | 32 | 0 | 0.0 | 0.0 | 0.00 | 0.00 | 0.00 | 92 | 1010.1 |
| 20260509113003 | 30 | 0 | 0.0 | 0.0 | 0.00 | 0.00 | 0.00 | 92 | 1010.1 |
| 20260509112003 | 30 | 200 | 0.0 | 2.0 | 0.00 | 0.00 | 0.00 | 92 | 1010.1 |
| 20260509111003 | 28 | 200 | 0.0 | 2.0 | 0.00 | 0.00 | 0.00 | 93 | 1010.2 |
| 20260509110003 | 28 | 0 | 0.0 | 0.0 | 0.00 | 0.00 | 0.00 | 92 | 1010.2 |
| 20260509105003 | 27 | 0 | 0.0 | 0.0 | 0.00 | 0.00 | 0.00 | 92 | 1010.2 |
| 20260509104004 | 27 | 0 | 0.0 | 0.0 | 0.00 | 0.00 | 0.00 | 92 | 1010.1 |
| 20260509103024 | 26 | 0 | 0.0 | 0.0 | 0.00 | 0.00 | 0.00 | 92 | 1010.2 |
| 20260509102003 | 26 | 0 | 0.0 | 0.0 | 0.00 | 0.00 | 0.00 | 91 | 1010.2 |
| 20260509101003 | 26 | 0 | 0.0 | 0.0 | 0.00 | 0.00 | 0.00 | 91 | 1010.2 |
| 20260509100024 | 26 | 0 | 0.0 | 0.0 | 0.00 | 0.00 | 0.00 | 91 | 1010.2 |
| 20260509095003 | 26 | 0 | 0.0 | 0.0 | 0.00 | 0.00 | 0.00 | 91 | 1010.3 |
| 20260509094003 | 26 | 0 | 0.0 | 0.0 | 0.00 | 0.00 | 0.00 | 91 | 1010.2 |
| 20260509093003 | 26 | 0 | 0.0 | 0.0 | 0.00 | 0.00 | 0.00 | 91 | 1010.1 |
| 20260509092003 | 26 | 0 | 0.0 | 0.0 | 0.00 | 0.00 | 0.00 | 90 | 1010.3 |
| 20260509091003 | 26 | 0 | 0.0 | 0.0 | 0.00 | 0.00 | 0.00 | 90 | 1010.3 |
| 20260509090003 | 26 | 0 | 0.0 | 0.0 | 0.00 | 0.00 | 0.00 | 90 | 1010.4 |
| 20260509085003 | 27 | 0 | 0.0 | 0.0 | 0.00 | 0.00 | 0.00 | 90 | 1010.4 |
| 20260509084003 | 27 | 0 | 0.0 | 0.0 | 0.00 | 0.00 | 0.00 | 90 | 1010.4 |
| 20260509083003 | 27 | 0 | 0.0 | 0.0 | 0.00 | 0.00 | 0.00 | 90 | 1010.4 |
| 20260509082024 | 27 | 0 | 0.0 | 0.0 | 0.00 | 0.00 | 0.00 | 90 | 1010.4 |
| 20260509081003 | 27 | 0 | 0.0 | 0.0 | 0.00 | 0.00 | 0.00 | 90 | 1010.4 |
| 20260509080003 | 27 | 0 | 0.0 | 0.0 | 0.00 | 0.00 | 0.00 | 90 | 1010.5 |
| 20260509075003 | 27 | 0 | 0.0 | 0.0 | 0.00 | 0.00 | 0.00 | 90 | 1010.4 |
| 20260509074024 | 27 | 0 | 0.0 | 0.0 | 0.00 | 0.00 | 0.00 | 89 | 1010.5 |
| 20260509073003 | 27 | 0 | 0.0 | 0.0 | 0.00 | 0.00 | 0.00 | 89 | 1010.4 |
| 20260509072024 | 27 | 0 | 0.0 | 0.0 | 0.00 | 0.00 | 0.00 | 88 | 1010.3 |
| 20260509071003 | 27 | 0 | 0.0 | 0.0 | 0.00 | 0.00 | 0.00 | 88 | 1010.4 |
| 20260509070024 | 27 | 0 | 0.0 | 0.0 | 0.00 | 0.00 | 0.00 | 88 | 1010.3 |
| 20260509065003 | 28 | 0 | 0.0 | 0.0 | 0.00 | 0.00 | 0.00 | 88 | 1010.2 |
| 20260509064003 | 28 | 0 | 0.0 | 0.0 | 0.00 | 0.00 | 0.00 | 88 | 1010.4 |
| 20260509063003 | 28 | 0 | 0.0 | 0.0 | 0.00 | 0.00 | 0.00 | 88 | 1010.5 |
| 20260509062003 | 28 | 0 | 0.0 | 0.0 | 0.00 | 0.00 | 0.00 | 87 | 1010.5 |
| 20260509061024 | 28 | 0 | 0.0 | 0.0 | 0.00 | 0.00 | 0.00 | 87 | 1010.6 |
| 20260509060004 | 28 | 0 | 0.0 | 0.0 | 0.00 | 0.00 | 0.00 | 87 | 1010.6 |
| 20260509055003 | 28 | 0 | 0.0 | 0.0 | 0.00 | 0.00 | 0.00 | 87 | 1010.6 |
| 20260509054024 | 28 | 0 | 0.0 | 0.0 | 0.00 | 0.00 | 0.00 | 86 | 1010.7 |
| 20260509053003 | 28 | 0 | 0.0 | 0.0 | 0.00 | 0.00 | 0.00 | 86 | 1010.8 |
| 20260509052003 | 29 | 0 | 0.0 | 0.0 | 0.00 | 0.00 | 0.00 | 85 | 1010.8 |
| 20260509051003 | 29 | 0 | 0.0 | 0.0 | 0.00 | 0.00 | 0.00 | 85 | 1010.6 |
| 20260509050003 | 29 | 0 | 0.0 | 0.0 | 0.00 | 0.00 | 0.00 | 85 | 1010.6 |
| 20260509045003 | 29 | 0 | 0.0 | 0.0 | 0.00 | 0.00 | 0.00 | 85 | 1010.7 |
| 20260509044003 | 29 | 0 | 0.0 | 0.0 | 0.00 | 0.00 | 0.00 | 84 | 1010.6 |
| 20260509043003 | 29 | 0 | 0.0 | 0.0 | 0.00 | 0.00 | 0.00 | 84 | 1010.6 |
| 20260509042003 | 30 | 0 | 0.0 | 0.0 | 0.00 | 0.00 | 0.00 | 83 | 1010.5 |
| 20260509041003 | 30 | 0 | 0.0 | 0.0 | 0.00 | 0.00 | 0.00 | 83 | 1010.5 |
| 20260509040003 | 30 | 0 | 0.0 | 0.0 | 0.00 | 0.00 | 0.00 | 83 | 1010.5 |